User: anonymous   Login
Location: Unspecified
(0.0000°N, 0.0000°E)
Time: 14:25:07
(UTC+00:00)
Language:

Envisat - Orbit

View from above orbital plane
View from above orbital plane
View from above satellite
View from above satellite

Ground track
Ground track

The orbit data is extracted from the following two-line orbital elements,

1 27386U 02009A   19201.11677507 -.00000010  00000-0  10241-4 0  9998
2 27386  98.1478 220.5346 0001407  94.0484 307.0897 14.37952951910716
Epoch (UTC): 20 July 2019 02:48:09
Eccentricity: 0.0001407
inclination: 98.1478°
perigee height: 764 km
apogee height: 766 km
right ascension of ascending node: 220.5346°
argument of perigee: 94.0484°
revolutions per day: 14.37952951
mean anomaly at epoch: 307.0897°
orbit number at epoch: 91071

The dashed part of the orbit path shows where the satellite is in the earth's shadow,  

DLR